Regional Weather Roundup
Issued by NWS

Home | Current Version | Previous Version | Text Only | Print | Product List | Glossary Off
Versions: 1 2 3 4 5 6 7 8 9 10 11 12 13 14 15 16 17 18 19 20 21 22 23 24 25 26 27 28 29 30 31 32 33 34 35 36 37 38 39 40 41 42 43 44 45 46 47 48 49 50

485
ASUS43 KMKX 241600
RWRWI

WISCONSIN REGIONAL WEATHER ROUNDUP
NATIONAL WEATHER SERVICE MILWAUKEE/SULLIVAN WI
1100 AM CDT WED AUG 24 2016

NOTE: "FAIR" INDICATES FEW OR NO CLOUDS BELOW 12,000 FEET WITH NO
SIGNIFICANT WEATHER AND/OR OBSTRUCTIONS TO VISIBILITY.

WIZ001-002-006>008-014>016-023>028-241700-
NORTHWEST WISCONSIN

CITY           SKY/WX    TMP DP  RH WIND       PRES   REMARKS
SUPERIOR ARPT  MOSUNNY   76  67  74 W7        29.82R
ASHLAND        MOSUNNY   75  66  73 SW5       29.82S
HAYWARD        CLOUDY    70  65  84 W5        29.87R
SIREN          CLOUDY    69  66  92 W7        29.88R
CUMBERLAND     CLOUDY    68  64  88 W8        29.88R
RICE LAKE      CLOUDY    71  66  85 W7        29.89R
CHETEK         NOT AVBL
LADYSMITH      CLOUDY    70  69  96 W6        29.88R
EAU CLAIRE     NOT AVBL
MENOMONIE      CLOUDY    74  67  78 W6        29.87S
NEW RICHMOND   CLOUDY    70  67  89 W9        29.90R
OSCEOLA        CLOUDY    71  71  99 NW6       29.91R
$$

WIZ003>005-009-010-017-018-241700-
NORTH CENTRAL WISCONSIN

CITY           SKY/WX    TMP DP  RH WIND       PRES   REMARKS
MANITOWISH WTR NOT AVBL
ARBOR VITAE    DRIZZLE   67  66  95 SW7       29.84S
WOODRUFF       DRIZZLE   67  66  95 SW7       29.84S
RHINELANDER    CLOUDY    67  67 100 SW12G20   29.86S FOG
EAGLE RIVER    RAIN      66  66 100 SW8       29.84S
LAND O LAKES   DRIZZLE   68  67  98 S5        29.84F
PHILLIPS       CLOUDY    67  67 100 SW7       29.85R FOG
TOMAHAWK       CLOUDY    66  65  96 CALM      29.86S FOG
MEDFORD        CLOUDY    66  66 100 SW7       29.87S FOG
MERRILL        CLOUDY    67  67 100 SW12      29.86F FOG
$$

WIZ029-030-035-036-043>047-241700-
CENTRAL WISCONSIN

CITY           SKY/WX    TMP DP  RH WIND       PRES   REMARKS
WAUSAU         CLOUDY    68  66  93 SW8       29.86R
MOSINEE        NOT AVBL
MARSHFIELD     LGT RAIN  69  66  90 SW7       29.88S FOG
STEVENS POINT  CLOUDY    66  65  97 SW13      29.89R
WAUPACA        CLOUDY    73  69  88 S9        29.89R
WAUTOMA        CLOUDY    71  68  90 SW10      29.89F
WISC RAPIDS    CLOUDY    70  69  97 SW10      29.90R
CAMP DOUGLAS   NOT AVBL
$$

WIZ011>013-019>022-031-037>040-048>050-241700-
NORTHEAST WISCONSIN

CITY           SKY/WX    TMP DP  RH WIND       PRES   REMARKS
ANTIGO         CLOUDY    67  66  98 SW10      29.87S
SHAWANO        CLOUDY    71  69  93 SW6       29.86S
OCONTO         NOT AVBL
STURGEON BAY   CLOUDY    72  69  90 SW9       29.86S
GREEN BAY      CLOUDY    73  69  87 SW10G17   29.86S
MANITOWOC      NOT AVBL
APPLETON       PTSUNNY   72  68  88 SW16G22   29.87S
CLINTONVILLE   CLOUDY    72  68  88 SW13      29.86S
OSHKOSH        CLOUDY    73  66  78 SW12G17   29.89R
$$

WIZ032>034-041-042-053>061-241700-
SOUTHWEST WISCONSIN

CITY           SKY/WX    TMP DP  RH WIND       PRES   REMARKS
LA CROSSE      CLOUDY    74  32  21 S9        29.88R
SPARTA         CLOUDY    70  67  92 SW3       29.89S
VIROQUA        CLOUDY    71  70  97 S12       29.92R
BOSCOBEL       CLOUDY    76  70  82 VRB7      29.91R
PRAIRIE DU CHI CLOUDY    74  72  93 S8        29.90R
PLATTEVILLE    CLOUDY    73  73  99 S7        29.94R
$$

WIZ056-057-062-063-064-067-068-241700-
SOUTH CENTRAL WISCONSIN

CITY           SKY/WX    TMP DP  RH WIND       PRES   REMARKS
REEDSBURG      NOT AVBL
BARABOO/DELLS  CLOUDY    72  67  84 SW10      29.91S
LONE ROCK      CLOUDY    73  68  83 S6        29.92R
MINERAL POINT  CLOUDY    72  70  94 S9        29.94R
MADISON        CLOUDY    73  68  84 S12G22    29.91F
MIDDLETON      CLOUDY    74  68  83 S12       29.91F
WATERTOWN      PTSUNNY   73  69  88 S10       29.92R
MONROE         CLOUDY    73  70  88 S16       29.94F
JANESVILLE     CLOUDY    72  72 100 S7        29.93R
$$

WIZ051-052-058>065-066-070>072-241700-
SOUTHEAST WISCONSIN

CITY           SKY/WX    TMP DP  RH WIND       PRES   REMARKS
MILWAUKEE      CLOUDY    78  69  73 SW13G20   29.92S HX  80
WAUKESHA       PTSUNNY   72  66  83 S10G18    29.95S
MILWAUKEE/TIMM NOT AVBL
RACINE         CLOUDY    75  69  81 SW8       29.96S
BURLINGTON     CLOUDY    71  67  89 CALM      29.95S
KENOSHA        CLOUDY    74  70  87 S13       29.96R
FOND DU LAC    CLOUDY    73  67  81 SW14      29.91R
SHEBOYGAN      CLOUDY    72  67  84 S14       29.90R
WEST BEND      MOSUNNY   73  68  83 SW9       29.92R
JUNEAU         CLOUDY    71  67  87 S13       29.94R
$$

LSZ147-162-241700-
LAKE SUPERIOR

STATION/POSITION TIME  TEMP    WIND        PRES    WAVE
                       AIR SEA DIR/SP/G            HT/PER
                 (UTC) (F)     (DEG/KT/KT) (MB)    (FT/S)
W MID LAKE BUOY  1450   67 67  150/  8/ 10 1008.4F   1
DEVILS ISLAND    1500   70     220/  4/  5 1008.9F
PORT WING        1500   70     300/  5/  7 1009.5
SAXON HARBOR     1500   72     230/  4/  6 1009.1S
$$

LMZ867-665-643>646-241700-
LAKE MICHIGAN

STATION/POSITION TIME  TEMP    WIND        PRES    WAVE
                       AIR SEA DIR/SP/G            HT/PER
                 (UTC) (F)     (DEG/KT/KT) (MB)    (FT/S)
CHAMBERS ISLAND  1500   70     190/  4/ 11 1010.5F
S GREEN BAY BUOY 1530   72 73  210/ 17/ 21 1010.3S
N MID LAKE BUOY  1450   70 70  230/ 14/ 17 1010.1F   5/ 6
NORTHPORT PIER   1500   70     180/  1/  6 1010.5F
SISTER BAY       1507   72     210/ 11/ 15   N/A
KEWAUNEE LAKESHO 1500   72     240/  7/ 12 1010.8F
SHEBOYGAN LAKESH 1500   69     180/  8/  9 1010.8F
PORT WASHINGTON  1540   67     200/  6/  9 1013.5F
ATWATER BUOY     1500   59 46  180/  8/ 12   N/A
MILWAUKEE LAKESH 1510   72     210/ 11/ 12   N/A
S MID LAKE BUOY  1450   72 75  200/ 17/ 21 1014.2F   5/ 6
KENOSHA   LAKESH 1500   69     180/ 11/ 13 1013.5F
$$

TC  - TEMPERATURE IN CELSIUS
VSB - VISIBILITY IN STATUTE MILES
WCI - WIND CHILL INDEX
HX  - HEAT INDEX





USA.gov is the U.S. government's official web portal to all federal, state and local government web resources and services.